www.pogodaiklimat.ru
ПОГОДА в Хапаранда аэропорту
Время
(UTC), дата
07 9.12
08 9.12
09 9.12
10 9.12
11 9.12
12 9.12
13 9.12
14 9.12
15 9.12
16 9.12
17 9.12
18 9.12
19 9.12
20 9.12
21 9.12
22 9.12
23 9.12
00 10.12
01 10.12
02 10.12
03 10.12
04 10.12
05 10.12
06 10.12
07 10.12
08 10.12
09 10.12
10 10.12
11 10.12
12 10.12
13 10.12
14 10.12
15 10.12
16 10.12
17 10.12
18 10.12
19 10.12
20 10.12
21 10.12
22 10.12
23 10.12
00 11.12
01 11.12
02 11.12
03 11.12
04 11.12
05 11.12
06 11.12
07 11.12
08 11.12
09 11.12
10 11.12
11 11.12
12 11.12
13 11.12
14 11.12
15 11.12
16 11.12
17 11.12
18 11.12
19 11.12
20 11.12
21 11.12
22 11.12
23 11.12
00 12.12
01 12.12
02 12.12
03 12.12
04 12.12
05 12.12
06 12.12
07 12.12
08 12.12
09 12.12
10 12.12
11 12.12
12 12.12
13 12.12
14 12.12
15 12.12
16 12.12
17 12.12
18 12.12
19 12.12
20 12.12
21 12.12
22 12.12
23 12.12
00 13.12
01 13.12
02 13.12
03 13.12
04 13.12
05 13.12
06 13.12
07 13.12
08 13.12
09 13.12
10 13.12
11 13.12
12 13.12
13 13.12
14 13.12
15 13.12
16 13.12
17 13.12
18 13.12
19 13.12
20 13.12
21 13.12
22 13.12
23 13.12
00 14.12
01 14.12
02 14.12
03 14.12
04 14.12
05 14.12
06 14.12
07 14.12
08 14.12
09 14.12
10 14.12
11 14.12
12 14.12
13 14.12
14 14.12
15 14.12
16 14.12
17 14.12
18 14.12
19 14.12
20 14.12
21 14.12
22 14.12
23 14.12
00 15.12
01 15.12
02 15.12
03 15.12
04 15.12
05 15.12
06 15.12
07 15.12
08 15.12
09 15.12
10 15.12
11 15.12
12 15.12
13 15.12
14 15.12
15 15.12
16 15.12
17 15.12
18 15.12
19 15.12
20 15.12
21 15.12
22 15.12
23 15.12
00 16.12
01 16.12
02 16.12
03 16.12
04 16.12
05 16.12
Ветер
(напр.,м/с)
Видим. Явления Облачность Т
(С)
Тd
(С)
f
(%)
Тe
(С)
Тes
(С)
Комфортность P
(гПа)
Po
(гПа)
Тmin
(С)
Tmax
(С)
R
(мм)
R24
(мм)
S
(см)
С 4 50 км 9/6 270 м
[]
-5.9 -6.7 94 -13 -13 972.5 970.7
С 4
{10}
15 км в посл. час снег 10/9 270 м
[]
-5.2 -6.0 94 -12 -12 973.2 971.3 0.0
С 4
{9}
50 км {снег, метель} 10/9 330 м
[]
-4.9 -5.8 93 -11 -11 973.8 971.9
С 5
{9}
4300 м слаб. снег 10/5 330 м
[]
-4.8 -5.7 93 -12 -12 974.5 972.6
С 4
{9}
2900 м осадки {ливн. осадки} ясно -4.9 -5.8 93 -11 -11 975.6 973.7 0.2
С 4
{8}
1700 м осадки {ливн. осадки} ясно -4.8 -5.7 93 -11 -11 976.8 974.9 0.3
С 3
{8}
8000 м слаб. снег {осадки} ясно -5.0 -6.0 93 -11 -11 977.9 976.0 0.1
С 4
{8}
7000 м слаб. снег {осадки} ясно -5.5 -6.6 92 -12 -12 979.1 977.3 0.1
С 3
{7}
6000 м слаб. снег {осадки} ясно -5.7 -6.8 92 -11 -11 980.5 978.6
С 3
{7}
14 км в посл. час снег ясно -6.4 -7.7 90 -12 -12 981.6 979.7
С 2
{6}
50 км {снег, осадки} ясно -7.1 -8.3 91 -12 -12 983.0 981.1
СЗ 2
{5}
50 км {снег, осадки} ясно -8.2 -9.6 90 -13 -13 984.5 982.6 -8.3 -4.8
С 3
{5}
50 км 9/9 960 м
[]
-7.2 -8.3 92 -13 -13 985.9 984.0
СЗ 2
{6}
50 км 9/4 1500 м
[]
-8.0 -9.4 90 -13 -13 987.3 985.4
С 3
{5}
50 км 3/1 1500 м
[]
-7.1 -8.3 91 -13 -13 988.8 986.9
СЗ 2
{7}
50 км 10/10 1440 м
[]
-7.1 -8.6 89 -12 -12 990.6 988.7
СЗ 2
{5}
50 км 5/5 2000 м
[]
-8.8 -10.6 87 -13 -13 991.9 990.0
С 2
{4}
50 км 10/1
[]
-10.4 -12.5 85 -15 -15 993.2 991.3
СЗ 2
{5}
50 км ясно -11.5 -13.3 86 -16 -16 994.6 992.7
С 2
{4}
50 км ясно -11.8 -13.5 87 -16 -16 995.9 994.0
СЗ 2
{4}
50 км ясно -12.3 -13.8 89 -17 -17 997.3 995.4
СЗ 2
{3}
50 км 9/3 1050 м
[]
-10.6 -11.9 90 -15 -15 998.6 996.6
С 2
{4}
50 км в посл. час снег {ливн. осадки} 9/1 1500 м
[]
-9.9 -11.4 89 -14 -14 999.7 997.8 0.0
СЗ 2
{3}
50 км {ливн. осадки, снег} ясно -11.3 -12.8 89 -16 -16 1001.2 999.3 -12.5 -6.6
СЗ 1
{3}
50 км ясно -12.3 -13.8 89 -15 -15 1002.2 1000.3
СЗ 1
{3}
50 км ясно -12.7 -14.2 89 -15 -15 1003.3 1001.4
З 2
{3}
45 км ясно -11.7 -13.3 88 -16 -16 1004.7 1002.7
СЗ 1
{3}
50 км 5/0
[]
-12.0 -13.6 88 -14 -14 1005.4 1003.5
З 2
{3}
50 км ясно -12.4 -13.9 89 -17 -17 1006.2 1004.3
СЗ 1
{3}
50 км ясно -12.5 -14.0 89 -15 -15 1007.2 1005.3
СЗ 1
{3}
50 км 5/1
[]
-13.5 -15.3 86 -16 -16 1007.7 1005.8
Ю 1
{2}
50 км ясно -14.7 -16.4 87 -17 -17 1008.4 1006.5
ЮЗ 2
{2}
50 км ясно -14.9 -16.6 87 -20 -20 1008.9 1006.9
штиль 0
{2}
50 км ясно -15.7 -17.7 85 -16 -16 1009.4 1007.4
В 1
{2}
50 км ясно -16.5 -18.5 84 -19 -19 1009.5 1007.5
ЮВ 1
{2}
50 км ясно -17.2 -19.3 84 -20 -20 1009.2 1007.3 -17.5 -11.1
В 1 45 км ясно -17.7 -19.9 83 -21 -21 1009.2 1007.3
В 1
{2}
20 км ясно -17.6 -19.8 83 -20 -20 1009.4 1007.4
СВ 1
{2}
26 км ясно -17.6 -19.8 83 -20 -20 1009.3 1007.4
СВ 2
{2}
30 км ясно -16.6 -18.4 86 -22 -22 1008.7 1006.7
В 1
{3}
8000 м 1/1 570 м
[]
-15.7 -17.6 85 -18 -18 1008.2 1006.2
СВ 1
{2}
40 км ясно -14.8 -16.5 87 -17 -17 1007.6 1005.7
В 2
{3}
40 км 6/6
[]
-13.0 -14.5 88 -18 -18 1006.9 1005.0
ЮВ 2
{5}
45 км 10/10 210 м
[]
-5.6 -6.4 94 -10 -10 1005.8 1003.9
Ю 5
{9}
35 км 10/10 180 м
[]
-2.0 -2.5 96 -9 -9 1004.7 1002.8
Ю 4
{12}
12 км слаб. ливневой снег 10/10 210 м
[]
-2.1 -2.6 96 -8 -8 1003.8 1002.0
Ю 5
{12}
1700 м слаб. снег 10/10 210 м
[]
-2.6 -3.1 96 -9 -9 1002.3 1000.4 0.4
ЮВ 5
{13}
300 м сильн. снег {ливн. осадки} 10/6 210 м
[]
-3.3 -3.8 96 -10 -10 1001.0 999.1 -17.9 -1.8 0.8
ЮВ 6
{13}
500 м снег 1/1 2000 м
[]
-3.1 -3.6 96 -11 -11 999.2 997.4 1
ЮВ 6
{13}
1600 м снег ?/? -3.3 -3.7 97 -11 -11 998.1 996.2 2
ЮВ 6
{14}
600 м снег {осадки} 9/5 210 м
[]
-2.5 -2.8 98 -10 -10 996.3 994.4 0.7
Ю 7
{15}
600 м осадки ?/? -1.7 -2.0 98 -10 -10 994.8 993.0 2
Ю 6
{14}
3500 м слаб. снег {осадки} 8/8 210 м
[]
-0.9 -1.1 99 -8 -8 993.5 991.6 0.6
Ю 7
{16}
2900 м слаб. снег {осадки} 10/10 210 м
[]
-0.5 -0.7 99 -8 -8 992.4 990.5 0.1
Ю 7
{15}
1300 м слаб. снег 10/10 150 м
[]
-0.2 -0.3 99 -8 -8 991.6 989.8 0.2
Ю 6
{16}
600 м снег 10/10 120 м
[]
-0.2 -0.4 99 -7 -7 990.8 989.0 0.6
Ю 6
{14}
600 м снег 10/10 90 м
[]
-0.0 -0.2 99 -7 -7 990.5 988.7 1
Ю 5
{14}
1200 м снег 10/9 60 м
[]
+0.1 -0.1 99 -6 -6 990.7 988.8 2
ЮЗ 4
{10}
45 км в посл. час снег {ливн. осадки} 10/6 240 м
[]
+0.8 +0.7 99 -5 -5 991.3 989.5 0.4
ЮЗ 4
{9}
50 км слаб. ливневой дождь 9/6 500 м
[]
+1.0 +0.8 99 -4 -4 992.4 990.5 +1.2
ЮЗ 3
{10}
50 км в посл. час дождь {ливн. осадки, метель} 5/4 330 м
[]
+0.8 +0.6 99 -4 -4 993.9 992.1 0.0
ЮЗ 3
{8}
50 км {ливн. осадки, метель} 9/9 300 м
[]
+1.1 +1.0 99 -4 -4 995.1 993.3
ЮЗ 3
{7}
50 км {ливн. осадки, метель} 10/10 240 м
[]
+1.0 +0.8 99 -4 -4 996.1 994.2
Ю 3
{6}
35 км {ливн. осадки, метель} 10/10 150 м
[]
+1.1 +1.0 99 -4 -4 996.9 995.0
ЮЗ 3
{8}
45 км {ливн. осадки, метель} 10/10 120 м
[]
+1.5 +1.3 99 -3 -3 996.8 995.0
Ю 4
{8}
50 км {ливн. осадки, метель} 10/10 240 м
[]
+1.9 +1.7 99 -3 -3 997.2 995.3
Ю 5
{10}
50 км 10/10 300 м
[]
+2.1 +1.9 99 -4 -4 997.2 995.4
Ю 4
{11}
40 км 10/10 270 м
[]
+1.9 +1.7 99 -3 -3 997.3 995.4
Ю 3
{9}
45 км 10/10 360 м
[]
+2.2 +1.8 97 -2 -2 997.5 995.6
Ю 4
{8}
35 км 10/10 330 м
[]
+2.1 +1.7 97 -3 -3 997.3 995.5
Ю 4
{9}
10 км осадки 10/10 300 м
[]
+2.0 +1.7 98 -3 -3 997.4 995.6 0.1
Ю 4
{8}
5000 м слаб. ливневой дождь 10/10 150 м
[]
+2.0 +1.7 98 -3 -3 997.5 995.6 +0.6 +2.3
Ю 4
{9}
6000 м слаб. ливневой дождь 10/10 90 м
[]
+1.8 +1.6 99 -4 -4 997.6 995.7 0.1
Ю 4
{8}
5000 м слаб. ливневой дождь 10/10 90 м
[]
+1.8 +1.6 99 -4 -4 997.8 995.9 0.1
Ю 3
{9}
7000 м в посл. час дождь {ливн. осадки, метель} 10/10 210 м
[]
+2.0 +1.8 99 -3 -3 997.8 995.9
Ю 4
{9}
8000 м слаб. ливневой дождь {метель} 10/10 210 м
[]
+1.9 +1.8 99 -3 -3 997.8 996.0
Ю 4
{8}
9000 м слаб. ливневой дождь {метель} 10/10 150 м
[]
+1.9 +1.6 98 -3 -3 997.6 995.8
Ю 4
{8}
5000 м слаб. ливневой дождь {метель} 10/10 210 м
[]
+1.9 +1.7 99 -3 -3 997.7 995.9 0.1
Ю 4
{9}
6000 м в посл. час дождь {ливн. осадки} 10/10 150 м
[]
+1.9 +1.7 99 -3 -3 997.6 995.7 0.1
Ю 3
{8}
9000 м {ливн. осадки, метель} 10/8 90 м
[]
+1.7 +1.5 99 -3 -3 997.6 995.7
Ю 3
{8}
4500 м слаб. ливневой дождь {морось} 10/9 60 м
[]
+1.6 +1.4 99 -3 -3 997.4 995.5 0.3
Ю 3
{9}
4300 м слаб. морось 10/10 60 м
[]
+1.2 +1.1 99 -4 -4 997.3 995.4
Ю 4
{8}
4100 м в посл. час дождь {ливн. осадки, морось} 10/10 60 м
[]
+1.2 +1.0 99 -4 -4 997.1 995.3
Ю 3
{9}
4000 м в посл. час дождь {ливн. осадки, морось} 10/10 60 м
[]
+1.0 +0.8 99 -4 -4 996.8 994.9 +1.0 +2.1 0.1
Ю 4
{9}
5000 м дымка 10/10 60 м
[]
+0.7 +0.5 99 -5 -5 996.6 994.8
Ю 4
{9}
4300 м слаб. дождь 10/10 60 м
[]
+0.5 +0.3 99 -5 -5 996.5 994.6 0.1
Ю 3
{8}
3400 м слаб. снег {дождь} 10/10 60 м
[]
+0.3 +0.1 99 -5 -5 996.1 994.3 0.2
Ю 3
{7}
2200 м слаб. снег {дождь} 10/10 60 м
[]
+0.3 +0.1 99 -5 -5 995.9 994.0 0.6
Ю 3
{8}
3500 м слаб. дождь со снегом 10/10 60 м
[]
+0.5 +0.3 99 -4 -4 995.5 993.6 0.3
Ю 3
{8}
2000 м слаб. снег {дождь} 10/10 60 м
[]
+0.3 +0.2 99 -5 -5 995.2 993.3 0.8
Ю 4
{9}
1400 м слаб. снег 10/10 60 м
[]
+0.3 +0.1 99 -5 -5 994.9 993.1 1
Ю 4
{8}
1600 м слаб. снег 10/10 60 м
[]
+0.2 +0.1 99 -5 -5 994.8 992.9 1
Ю 4
{8}
1800 м дождь со снегом 10/10 60 м
[]
+0.2 +0.1 99 -5 -5 994.5 992.7 0.9
Ю 4
{9}
1600 м слаб. дождь со снегом 10/10 60 м
[]
+0.2 +0.1 99 -5 -5 994.6 992.7 0.8
Ю 4
{8}
1700 м слаб. дождь со снегом 10/10 60 м
[]
+0.2 +0.1 99 -5 -5 994.7 992.8 0.9
Ю 4
{9}
1600 м слаб. снег {дождь} 10/10 60 м
[]
+0.2 +0.1 99 -5 -5 994.9 993.0 +0.2 +1.0 0.9
Ю 4
{8}
2300 м слаб. дождь со снегом 10/10 60 м
[]
+0.3 +0.1 99 -5 -5 995.2 993.3 0.6
Ю 3
{9}
6000 м слаб. ливневой снег 10/10 90 м
[]
+0.5 +0.3 99 -4 -4 995.5 993.6 0.1
Ю 4
{8}
3300 м слаб. дождь со снегом 10/10 120 м
[]
+0.5 +0.4 99 -5 -5 995.8 994.0 0.3
Ю 3
{8}
3700 м слаб. дождь со снегом 10/10 90 м
[]
+0.8 +0.7 99 -4 -4 996.2 994.3 0.2
Ю 4
{8}
4500 м слаб. дождь 10/10 150 м
[]
+1.2 +1.0 99 -4 -4 996.2 994.4 0.2
Ю 4
{8}
7000 м в посл. час дождь {ливн. осадки} 10/10 150 м
[]
+1.4 +1.3 99 -4 -4 996.6 994.8
Ю 3
{7}
8000 м дымка 10/10 270 м
[]
+1.5 +1.3 99 -3 -3 997.2 995.4
Ю 3
{7}
9000 м дымка 10/8 330 м
[]
+1.5 +1.3 99 -3 -3 997.8 995.9
Ю 2
{5}
12 км {дымка} 10/10 360 м
[]
+1.3 +1.0 98 -2 -2 998.3 996.5
Ю 2
{5}
17 км 10/10 330 м
[]
+1.1 +0.8 98 -3 -3 998.8 996.9
Ю 1
{4}
7000 м дымка 10/10 450 м
[]
+0.7 +0.4 98 -1 -1 999.2 997.4
Ю 3
{5}
13 км {дымка} 10/10 700 м
[]
+1.0 +0.8 99 -4 -4 999.5 997.7 +0.2 +1.5
Ю 3
{6}
10 км 10/10 570 м
[]
+1.1 +0.7 97 -4 -4 1000.0 998.1
Ю 3
{7}
5000 м в посл. час осадки {ливн. осадки} 10/10 150 м
[]
+0.9 +0.7 99 -4 -4 1000.3 998.5
Ю 4
{8}
3400 м слаб. дождь 10/10 400 м
[]
+0.7 +0.4 98 -5 -5 1000.5 998.6 0.1
Ю 3
{7}
6000 м слаб. ливневой дождь 10/10 630 м
[]
+0.9 +0.7 99 -4 -4 1001.0 999.1
Ю 3
{8}
5000 м слаб. ливневой дождь 10/10 120 м
[]
+0.8 +0.6 99 -4 -4 1001.1 999.3 0.1
Ю 3
{8}
7000 м слаб. дождь 10/10 360 м
[]
+0.9 +0.6 98 -4 -4 1001.4 999.5 0.1
Ю 3
{8}
2800 м дождь {морось} 10/10 210 м
[]
+0.6 +0.3 98 -4 -4 1001.4 999.6 0.1
Ю 3
{8}
4900 м слаб. дождь со снегом 10/10 150 м
[]
+0.6 +0.3 98 -4 -4 1001.7 999.9 0.1
ЮВ 2
{5}
6000 м в посл. час дождь 10/10 150 м
[]
+0.8 +0.6 99 -3 -3 1001.8 999.9
ЮВ 2
{5}
4500 м ливневой дождь {снег} 10/10 120 м
[]
+0.7 +0.4 98 -3 -3 1001.9 1000.0
ЮВ 2
{4}
5000 м в посл. час снег {ливн. осадки} 10/10 90 м
[]
+0.5 +0.3 99 -3 -3 1002.0 1000.1
ЮВ 2
{5}
5000 м слаб. ливневой снег 10/10 120 м
[]
+0.5 +0.3 99 -3 -3 1002.1 1000.2 +0.5 +1.2 0.1
ЮВ 2
{5}
5000 м в посл. час снег {ливн. осадки, метель} 10/10 120 м
[]
+0.6 +0.3 98 -3 -3 1002.4 1000.5
ЮВ 2
{5}
6000 м дымка {ливн. осадки} 10/10 120 м
[]
+0.6 +0.4 99 -3 -3 1002.5 1000.6
ЮВ 2
{5}
7000 м дымка {ливн. осадки} 10/10 180 м
[]
+0.6 +0.4 99 -3 -3 1002.5 1000.7
ЮВ 2
{5}
8000 м дымка {ливн. осадки} 10/10 180 м
[]
+0.5 +0.2 98 -3 -3 1002.6 1000.8
В 1
{4}
11 км {ливн. осадки, метель} 10/10 240 м
[]
+0.5 +0.1 97 -2 -2 1002.3 1000.4
В 1
{3}
10 км {ливн. осадки, метель} 10/10 210 м
[]
+0.6 +0.2 97 -2 -2 1002.4 1000.5
В 2
{4}
13 км 10/10 210 м
[]
+0.6 +0.3 98 -3 -3 1002.0 1000.1
В 2
{4}
13 км 10/10 210 м
[]
+0.6 +0.3 98 -3 -3 1001.9 1000.0
В 2
{4}
26 км 10/10 210 м
[]
+0.7 +0.3 97 -3 -3 1001.8 999.9
В 2
{4}
35 км 10/10 240 м
[]
+0.7 +0.2 96 -3 -3 1001.7 999.8
В 2
{6}
40 км 10/10 400 м
[]
+0.7 0.0 95 -3 -3 1001.3 999.5
В 2
{4}
24 км 10/6 270 м
[]
+0.7 -0.1 94 -3 -3 1001.6 999.7 +0.4 +0.8
В 2
{5}
30 км в посл. час снег {ливн. осадки} 10/10 270 м
[]
+0.6 -0.1 95 -3 -3 1001.5 999.6
В 2
{6}
24 км {ливн. осадки, снег} 10/10 300 м
[]
+0.6 -0.2 94 -3 -3 1001.3 999.4
В 3
{6}
30 км {ливн. осадки, снег} 10/8 300 м
[]
+0.7 -0.2 94 -4 -4 1001.3 999.4
В 2
{6}
40 км {ливн. осадки, снег} 10/10 450 м
[]
+0.7 -0.5 92 -3 -3 1001.0 999.1
В 2
{5}
40 км {ливн. осадки, снег} 10/9 330 м
[]
+0.7 -0.5 92 -3 -3 1000.8 998.9
В 2
{5}
10 км слаб. дождь со снегом 10/10 330 м
[]
+0.7 -0.3 93 -3 -3 1000.4 998.6
В 2
{6}
3200 м слаб. снег {дождь} 10/10 180 м
[]
+0.3 -0.1 97 -4 -4 1000.1 998.3 0.3
В 2
{6}
5000 м слаб. снег {дождь} 8/6 120 м
[]
+0.3 0.0 98 -4 -4 999.8 998.0 0.5
ЮВ 2 2000 м слаб. снег {дождь} 10/8 120 м
[]
+0.2 -0.0 99 -4 -4 999.6 997.8 0.3
ЮВ 2
{6}
11 км слаб. дождь 9/9 150 м
[]
+0.3 0.0 98 -4 -4 999.4 997.5 0.1
ЮВ 2
{6}
9000 м слаб. дождь со снегом 10/9 180 м
[]
+0.3 0.0 98 -4 -4 999.2 997.3 0.3
В 2
{5}
4300 м слаб. снег {дождь} 9/9 150 м
[]
+0.3 0.0 98 -4 -4 999.0 997.2 +0.2 +0.8 0.2
ЮВ 2
{6}
7000 м слаб. снег {дождь} 10/10 180 м
[]
+0.4 +0.1 98 -3 -3 999.0 997.1 0.2
ЮВ 3
{6}
2600 м слаб. дождь со снегом 10/8 120 м
[]
+0.3 0.0 98 -5 -5 999.1 997.2 0.3
ЮВ 2
{6}
2900 м слаб. снег {дождь} 1/1
[]
+0.3 0.0 98 -4 -4 998.7 996.9 0.4
В 2
{6}
12 км ливневой дождь {снег} 9/1 180 м
[]
+0.4 +0.2 99 -3 -3 998.2 996.4 0.1
В 3
{6}
1700 м слаб. дождь со снегом 9/5 150 м
[]
+0.4 +0.1 98 -4 -4 998.1 996.2 0.4
В 3
{7}
3200 м слаб. снег 1/0
[]
+0.3 +0.1 99 -5 -5 997.9 996.1 1
ЮВ 3
{7}
5000 м слаб. дождь 10/10 180 м
[]
+0.4 +0.2 99 -4 -4 997.8 995.9 0.1
ЮВ 2
{7}
50 км в посл. час дождь 10/10 210 м
[]
+0.5 +0.2 98 -3 -3 997.7 995.8
ЮВ 3
{6}
50 км {снег, дождь} 10/10 240 м
[]
+0.6 +0.2 97 -4 -4 997.5 995.7
ЮВ 3
{6}
3100 м слаб. дождь со снегом 10/10 150 м
[]
+0.4 0.0 97 -4 -4 997.4 995.6 0.1
ЮВ 3 3700 м слаб. снег {дождь} 8/0
[]
+0.3 +0.1 99 -5 -5 997.2 995.4 0.7
ЮВ 3
{6}
3100 м слаб. снег {дождь} 8/8 120 м
[]
+0.3 +0.2 99 -5 -5 997.1 995.2 +0.2 +0.7 0.4
ЮВ 2
{6}
3600 м слаб. снег 9/8 120 м
[]
+0.3 +0.1 99 -4 -4 996.9 995.1 0.4
ЮВ 2
{6}
3400 м слаб. снег 1/0
[]
+0.2 0.0 99 -4 -4 996.8 995.0 0.5
ЮВ 2
{6}
9000 м слаб. снег {метель} 9/9 150 м
[]
+0.3 +0.1 99 -4 -4 996.8 994.9 0.1
В 2
{5}
3300 м слаб. дождь 10/5 120 м
[]
+0.2 0.0 99 -4 -4 996.5 994.7 0.2
В 2
{4}
3600 м слаб. снег {дождь} 1/0
[]
+0.2 0.0 99 -4 -4 996.1 994.3 0.5
В 1
{4}
1000 м слаб. снег {дождь} ясно +0.1 -0.0 99 -2 -2 995.9 994.0 0.9
В 2
{3}
3700 м слаб. снег ясно +0.1 0.0 99 -4 -4 995.6 993.7 0.6
В 2
{3}
17 км в посл. час снег {ливн. осадки} 9/9 180 м
[]
+0.1 0.0 99 -4 -4 995.3 993.5 0.1
В 1
{3}
3400 м слаб. снег 10/3 150 м
[]
+0.1 -0.1 99 -2 -2 995.0 993.1 0.2
В 1
{3}
2600 м слаб. снег 10/10 150 м
[]
+0.1 -0.1 99 -2 -2 994.7 992.8 0.1
В 1
{3}
13 км в посл. час снег {ливн. осадки} 10/10 150 м
[]
+0.1 -0.1 99 -2 -2 994.5 992.6
Местоположение метеостанции Хапаранда аэропорт (Швеция): широта 65.82 долгота 24.12 высота над уровнем моря 15 м.
В архиве по умолчанию представлена погода в Хапаранда аэропорту за последнюю неделю. Архивные данные за месяц целиком и за предыдущие месяцы, начиная с января 2011 года, Вы можете получить, выбрав интересующий диапазон дат из раскрывающегося списка и нажав кнопку "Найти!".
*Определитесь, кто Вы:
Внимание! Время в таблицах - всемирное. Для получения местного времени необходимо прибавить поправку, которая равна 1 ч.
Смотрите также архив погоды в соседних городах и на ближайших метеорологических станциях:
Партнеры нашего сайта:      
Пояснения к столбцам:
  • Ветер - указаны скорость ветра в м/с - средняя за 10 мин, порывы в срок и между сроками (в фигурных скобках) и направление, откуда дует ветер: С - северный,
  • СВ - северо-восточный, В - восточный, ЮВ - юго-восточный, Ю - южный, ЮЗ - юго-западный, З - западный, СЗ - северо-западный.
  • Видимость - горизонтальная дальность видимости в метрах или километрах. При видимости от 1 до 10 км при отсутствии осадков обычно наблюдается дымка, при ухудшении видимости до 1 км и менее - туман. В сухую погоду видимость может ухудшаться дымом, пылью или мглою.
  • Явления - указаны атмосферные явления, наблюдавшиеся в срок или в последний час перед сроком; фигурными скобками обозначены явления, наблюдавшиеся между сроками (за 1-3 часа до срока); квадратными скобками обозначены град или гололедные отложения с указанием их диаметра в мм.
  • Облачность - указаны через наклонную черту общая и нижняя облачность в баллах и высота нижней границы облаков в метрах; квадратными скобками обозначены формы облаков: Ci - перистые, Cs - перисто-слоистые, Cc - перисто-кучевые, Ac - высококучевые, As - высокослоистые, Sc - слоисто-кучевые, Ns - слоисто-дождевые, Cu - кучевые, Cb - кучево-дождевые. Подробнее классификацию облаков см. в Атласе облаков (PDF).
  • T - Температура воздуха - температура, измеренная на высоте 2 м над землей.
  • Td - Температура точки росы - температура, при понижении до которой содержащийся в воздухе водяной пар достигнет насыщения.
  • f - Относительная влажность воздуха - влажноcть воздуха, измеренная на высоте 2 м над землей.
  • Te - Эффективная температура - температура, которую ощущает одетый по сезону человек в тени. Характеристика душности погоды. При расчете учитывается влияние влажности воздуха и скорости ветра на теплоощущения человека.
  • Tes - Эффективная температура на солнце - температура, которую ощущает человек, с поправкой на солнечный нагрев. Характеристика знойности погоды. Зависит от высоты солнца над горизонтом, облачности и скорости ветра. Ночью, в пасмурную погоду, а также при ветре 12 м/с и более поправка равна нулю.
  • P - Атмосферное давление - приведенное к уровню моря атмосферное давление.
  • Po - Атмосферное давление - измеренное на уровне метеостанции атмосферное давление.
  • Tmin - Минимальная температура - минимум температуры воздуха на высоте 2 м над землей.
  • Tmax - Максимальная температура - максимум температуры воздуха на высоте 2 м над землей.
  • R - Количество осадков - Количество выпавших осадков за период времени, мм. При наведении курсора мыши на число - период времени, за который выпало указанное количество осадков.
  • R24 - Количество осадков - Количество выпавших осадков за 24 часа, мм.
  • S - Снежный покров - Высота снежного покрова, см. При наведении курсора мыши на число - состояние снежного покрова и степень покрытия местности в баллах.